Weather History for Saint Simons Island, GA

Change the Weather History Date:

Sunday, May 11, 2014

  Actual Average Record
Temperature  
Mean Temperature 77 °F 73 °F  
Max Temperature 85 °F 81 °F 96 °F (1973)
Min Temperature 68 °F 65 °F 51 °F (1997)
Degree Days  
Heating Degree Days 0 0  
Month to date heating degree days 0 2  
Since 1 July heating degree days 1493 1486  
Cooling Degree Days 12 8  
Month to date cooling degree days 98 79  
Year to date cooling degree days 236 222  
Growing Degree Days 26 (Base 50)    
Moisture  
Dew Point 69 °F    
Average Humidity 78    
Maximum Humidity 90    
Minimum Humidity 65    
Precipitation  
Precipitation 0.00 in 0.05 in 1.14 in (2008)
Month to date precipitation 0.10 0.57  
Year to date precipitation 17.04 13.63  
Snow  
Snow 0.00 in - 0.00 in ()
Month to date snowfall 0.0  
Since 1 July snowfall T  
Snow Depth 0.00 in    
Sea Level Pressure  
Sea Level Pressure 30.12 in    
Wind  
Wind Speed 4 mph (South)    
Max Wind Speed 20 mph    
Max Gust Speed 26 mph    
Visibility 10 miles    
Events Thunderstorm    
T = Trace of Precipitation, MM = Missing Value Source: NWS Daily Summary

Daily Weather History Graph

Daily Weather History Graph

Search for Another Location

Airport:

Trip Planner

Search our weather history database for the weather conditions in past years. The results will help you decide how hot, cold, wet, or windy it might be!

Date:

Astronomy

May. 11, 2014 Rise Set
Actual Time 6:32 AM EDT 8:11 PM EDT
Civil Twilight 6:06 AM EDT 8:37 PM EDT
Nautical Twilight 5:34 AM EDT 9:09 PM EDT
Astronomical Twilight 5:01 AM EDT 9:42 PM EDT
Moon 5:17 PM EDT (5/11) 4:23 AM EDT (5/11)
Length of Visible Light 14h 31m
Length of Day
13h 38m
Waxing Gibbous, 89% of the Moon is Illuminated
May 11
Waxing Gibbous
May 14
Full
May 21
Last Quarter
May 28
New
Jun 5
First Quarter

Hourly Weather History & Observations

Time (EDT) Temp. Heat Index Dew Point Humidity Pressure Visibility Wind Dir Wind Speed Gust Speed Precip Events Conditions
12:53 AM 75.0 °F - 69.1 °F 82% 30.12 in 10.0 mi South 5.8 mph - N/A   Clear
1:53 AM 75.0 °F - 69.1 °F 82% 30.11 in 10.0 mi South 3.5 mph - N/A   Clear
2:53 AM 73.9 °F - 69.1 °F 85% 30.10 in 10.0 mi SSW 3.5 mph - N/A   Clear
3:53 AM 73.9 °F - 69.1 °F 85% 30.09 in 10.0 mi South 4.6 mph - N/A   Clear
4:53 AM 73.0 °F - 70.0 °F 90% 30.09 in 10.0 mi SSW 3.5 mph - N/A   Clear
5:53 AM 73.0 °F - 70.0 °F 90% 30.09 in 10.0 mi Calm Calm - N/A   Clear
6:53 AM 73.0 °F - 70.0 °F 90% 30.11 in 10.0 mi Calm Calm - N/A   Clear
7:53 AM 73.0 °F - 70.0 °F 90% 30.13 in 10.0 mi Calm Calm - N/A   Clear
8:53 AM 75.0 °F - 71.1 °F 87% 30.15 in 10.0 mi West 3.5 mph - N/A   Partly Cloudy
9:53 AM 78.1 °F - 70.0 °F 76% 30.16 in 10.0 mi Variable 3.5 mph - N/A   Clear
10:53 AM 78.1 °F - 70.0 °F 76% 30.17 in 10.0 mi West 4.6 mph - N/A   Clear
11:53 AM 80.1 °F 83.2 °F 70.0 °F 71% 30.17 in 10.0 mi WSW 5.8 mph - N/A   Clear
12:53 PM 82.9 °F 86.5 °F 69.1 °F 63% 30.16 in 10.0 mi SW 6.9 mph - N/A   Clear
1:53 PM 80.1 °F 83.8 °F 72.0 °F 76% 30.15 in 10.0 mi SE 5.8 mph - N/A   Clear
2:53 PM 82.0 °F 86.7 °F 72.0 °F 71% 30.13 in 10.0 mi SE 8.1 mph - N/A   Clear
3:53 PM 82.0 °F 86.3 °F 71.1 °F 69% 30.10 in 10.0 mi SE 10.4 mph - N/A   Clear
4:53 PM 79.0 °F - 71.1 °F 77% 30.09 in 10.0 mi SE 9.2 mph - N/A   Clear
5:25 PM 80.1 °F 83.6 °F 71.1 °F 74% 30.10 in 10.0 mi SSE 10.4 mph - N/A Thunderstorm Clear
5:40 PM 78.1 °F - 71.1 °F 79% 30.11 in 10.0 mi SSE 10.4 mph - N/A   Clear
5:53 PM 78.1 °F - 72.0 °F 81% 30.11 in 10.0 mi SSE 9.2 mph - N/A   Clear
6:22 PM 75.9 °F - 64.0 °F 67% 30.13 in 10.0 mi SW 11.5 mph 21.9 mph N/A   Partly Cloudy
6:53 PM 75.9 °F - 64.0 °F 67% 30.13 in 10.0 mi SSW 9.2 mph - N/A   Clear
7:53 PM 73.9 °F - 64.0 °F 71% 30.12 in 10.0 mi SW 11.5 mph - N/A   Clear
8:53 PM 73.0 °F - 66.0 °F 79% 30.12 in 10.0 mi Calm Calm - N/A   Clear
9:53 PM 71.1 °F - 66.0 °F 84% 30.13 in 10.0 mi Calm Calm - N/A   Clear
10:53 PM 69.1 °F - 64.9 °F 87% 30.14 in 10.0 mi Calm Calm - N/A   Clear
11:53 PM 69.1 °F - 66.0 °F 90% 30.16 in 10.0 mi Calm Calm - N/A   Clear